Year,Month,Day,Hour,Minute,Value (Times are PST for temperature in C)
2015,07,14,00,00,15.30
2015,07,14,00,01,15.30
2015,07,14,00,02,15.30
2015,07,14,00,03,15.20
2015,07,14,00,04,15.30
2015,07,14,00,05,15.30
2015,07,14,00,06,15.30
2015,07,14,00,07,15.30
2015,07,14,00,08,15.30
2015,07,14,00,09,15.30
2015,07,14,00,10,15.30
2015,07,14,00,11,15.30
2015,07,14,00,12,15.30
2015,07,14,00,13,15.30
2015,07,14,00,14,15.30
2015,07,14,00,15,15.30
2015,07,14,00,16,15.30
2015,07,14,00,17,15.30
2015,07,14,00,18,15.30
2015,07,14,00,19,15.20
2015,07,14,00,20,15.20
2015,07,14,00,21,15.20
2015,07,14,00,22,15.20
2015,07,14,00,23,15.20
2015,07,14,00,24,15.20
2015,07,14,00,25,15.20
2015,07,14,00,26,15.20
2015,07,14,00,27,15.20
2015,07,14,00,28,15.20
2015,07,14,00,29,15.20
2015,07,14,00,30,15.20
2015,07,14,00,31,15.20
2015,07,14,00,32,15.20
2015,07,14,00,33,15.20
2015,07,14,00,34,15.20
2015,07,14,00,35,15.20
2015,07,14,00,36,15.20
2015,07,14,00,37,15.20
2015,07,14,00,38,15.20
2015,07,14,00,39,15.20
2015,07,14,00,40,15.20
2015,07,14,00,41,15.10
2015,07,14,00,42,15.10
2015,07,14,00,43,15.10
2015,07,14,00,44,15.10
2015,07,14,00,45,15.10
2015,07,14,00,46,15.10
2015,07,14,00,47,15.10
2015,07,14,00,48,15.10
2015,07,14,00,49,15.00
2015,07,14,00,50,15.00
2015,07,14,00,51,14.90
2015,07,14,00,52,14.90
2015,07,14,00,53,14.80
2015,07,14,00,54,14.80
2015,07,14,00,55,14.80
2015,07,14,00,56,14.80
2015,07,14,00,57,14.70
2015,07,14,00,58,14.70
2015,07,14,00,59,14.70
2015,07,14,01,00,14.70
2015,07,14,01,01,14.70
2015,07,14,01,02,14.70
2015,07,14,01,03,14.70
2015,07,14,01,04,14.70
2015,07,14,01,05,14.60
2015,07,14,01,06,14.60
2015,07,14,01,07,14.60
2015,07,14,01,08,14.60
2015,07,14,01,09,14.60
2015,07,14,01,10,14.60
2015,07,14,01,11,14.60
2015,07,14,01,12,14.60
2015,07,14,01,13,14.60
2015,07,14,01,14,14.60
2015,07,14,01,15,14.60
2015,07,14,01,16,14.60
2015,07,14,01,17,14.60
2015,07,14,01,18,14.60
2015,07,14,01,19,14.60
2015,07,14,01,20,14.60
2015,07,14,01,21,14.60
2015,07,14,01,22,14.60
2015,07,14,01,23,14.60
2015,07,14,01,24,14.50
2015,07,14,01,25,14.50
2015,07,14,01,26,14.50
2015,07,14,01,27,14.40
2015,07,14,01,28,14.40
2015,07,14,01,29,14.40
2015,07,14,01,30,14.30
2015,07,14,01,31,14.30
2015,07,14,01,32,14.30
2015,07,14,01,33,14.30
2015,07,14,01,34,14.20
2015,07,14,01,35,14.20
2015,07,14,01,36,14.20
2015,07,14,01,37,14.20
2015,07,14,01,38,14.20
2015,07,14,01,39,14.10
2015,07,14,01,40,14.10
2015,07,14,01,41,14.10
2015,07,14,01,42,14.10
2015,07,14,01,43,14.10
2015,07,14,01,44,14.00
2015,07,14,01,45,14.00
2015,07,14,01,46,14.00
2015,07,14,01,47,14.00
2015,07,14,01,48,13.90
2015,07,14,01,49,13.90
2015,07,14,01,50,13.90
2015,07,14,01,51,13.90
2015,07,14,01,52,13.90
2015,07,14,01,53,13.80
2015,07,14,01,54,13.80
2015,07,14,01,55,13.80
2015,07,14,01,56,13.80
2015,07,14,01,57,13.80
2015,07,14,01,58,13.70
2015,07,14,01,59,13.70
2015,07,14,02,00,13.70
2015,07,14,02,01,13.70
2015,07,14,02,02,13.70
2015,07,14,02,03,13.70
2015,07,14,02,04,13.60
2015,07,14,02,05,13.60
2015,07,14,02,06,13.60
2015,07,14,02,07,13.60
2015,07,14,02,08,13.60
2015,07,14,02,09,13.60
2015,07,14,02,10,13.60
2015,07,14,02,11,13.60
2015,07,14,02,12,13.60
2015,07,14,02,13,13.50
2015,07,14,02,14,13.50
2015,07,14,02,15,13.50
2015,07,14,02,16,13.50
2015,07,14,02,17,13.50
2015,07,14,02,18,13.50
2015,07,14,02,19,13.50
2015,07,14,02,20,13.50
2015,07,14,02,21,13.50
2015,07,14,02,22,13.40
2015,07,14,02,23,13.40
2015,07,14,02,24,13.40
2015,07,14,02,25,13.40
2015,07,14,02,26,13.40
2015,07,14,02,27,13.40
2015,07,14,02,28,13.40
2015,07,14,02,29,13.40
2015,07,14,02,30,13.50
2015,07,14,02,31,13.50
2015,07,14,02,32,13.50
2015,07,14,02,33,13.50
2015,07,14,02,34,13.60
2015,07,14,02,35,13.60
2015,07,14,02,36,13.60
2015,07,14,02,37,13.60
2015,07,14,02,38,13.70
2015,07,14,02,39,13.70
2015,07,14,02,40,13.70
2015,07,14,02,41,13.80
2015,07,14,02,42,13.80
2015,07,14,02,43,13.90
2015,07,14,02,44,13.90
2015,07,14,02,45,14.00
2015,07,14,02,46,14.10
2015,07,14,02,47,14.10
2015,07,14,02,48,14.20
2015,07,14,02,49,14.20
2015,07,14,02,50,14.30
2015,07,14,02,51,14.30
2015,07,14,02,52,14.40
2015,07,14,02,53,14.50
2015,07,14,02,54,14.50
2015,07,14,02,55,14.60
2015,07,14,02,56,14.60
2015,07,14,02,57,14.60
2015,07,14,02,58,14.70
2015,07,14,02,59,14.70
2015,07,14,03,00,14.70
2015,07,14,03,01,14.80
2015,07,14,03,02,14.80
2015,07,14,03,06,14.90
2015,07,14,03,07,14.90
2015,07,14,03,08,14.90
2015,07,14,03,09,15.00
2015,07,14,03,10,15.00
2015,07,14,03,11,15.10
2015,07,14,03,12,15.10
2015,07,14,03,13,15.10
2015,07,14,03,14,15.10
2015,07,14,03,15,15.20
2015,07,14,03,16,15.20
2015,07,14,03,17,15.20
2015,07,14,03,18,15.30
2015,07,14,03,19,15.30
2015,07,14,03,20,15.30
2015,07,14,03,21,15.30
2015,07,14,03,22,15.40
2015,07,14,03,23,15.40
2015,07,14,03,24,15.40
2015,07,14,03,25,15.40
2015,07,14,03,26,15.40
2015,07,14,03,27,15.40
2015,07,14,03,28,15.40
2015,07,14,03,29,15.40
2015,07,14,03,30,15.40
2015,07,14,03,31,15.40
2015,07,14,03,32,15.40
2015,07,14,03,33,15.40
2015,07,14,03,34,15.40
2015,07,14,03,35,15.40
2015,07,14,03,36,15.40
2015,07,14,03,37,15.40
2015,07,14,03,38,15.40
2015,07,14,03,39,15.40
2015,07,14,03,40,15.30
2015,07,14,03,41,15.30
2015,07,14,03,42,15.30
2015,07,14,03,43,15.30
2015,07,14,03,44,15.30
2015,07,14,03,45,15.40
2015,07,14,03,46,15.40
2015,07,14,03,47,15.40
2015,07,14,03,48,15.40
2015,07,14,03,49,15.40
2015,07,14,03,50,15.40
2015,07,14,03,51,15.40
2015,07,14,03,52,15.40
2015,07,14,03,53,15.40
2015,07,14,03,54,15.40
2015,07,14,03,55,15.40
2015,07,14,03,56,15.40
2015,07,14,03,57,15.40
2015,07,14,03,58,15.40
2015,07,14,03,59,15.40
2015,07,14,04,00,15.40
2015,07,14,04,01,15.40
2015,07,14,04,02,15.40
2015,07,14,04,03,15.40
2015,07,14,04,04,15.40
2015,07,14,04,05,15.40
2015,07,14,04,06,15.40
2015,07,14,04,07,15.40
2015,07,14,04,08,15.40
2015,07,14,04,09,15.40
2015,07,14,04,10,15.40
2015,07,14,04,11,15.40
2015,07,14,04,12,15.40
2015,07,14,04,13,15.40
2015,07,14,04,14,15.40
2015,07,14,04,15,15.40
2015,07,14,04,16,15.40
2015,07,14,04,17,15.40
2015,07,14,04,18,15.40
2015,07,14,04,19,15.40
2015,07,14,04,20,15.40
2015,07,14,04,21,15.40
2015,07,14,04,22,15.40
2015,07,14,04,23,15.30
2015,07,14,04,24,15.30
2015,07,14,04,25,15.30
2015,07,14,04,26,15.30
2015,07,14,04,27,15.30
2015,07,14,04,28,15.30
2015,07,14,04,29,15.30
2015,07,14,04,30,15.20
2015,07,14,04,31,15.20
2015,07,14,04,32,15.10
2015,07,14,04,33,15.10
2015,07,14,04,34,15.10
2015,07,14,04,35,15.00
2015,07,14,04,36,15.00
2015,07,14,04,37,15.00
2015,07,14,04,38,14.90
2015,07,14,04,39,14.90
2015,07,14,04,40,14.90
2015,07,14,04,41,14.90
2015,07,14,04,42,14.90
2015,07,14,04,43,14.90
2015,07,14,04,44,14.90
2015,07,14,04,45,14.90
2015,07,14,04,46,14.90
2015,07,14,04,47,14.90
2015,07,14,04,48,14.90
2015,07,14,04,49,14.90
2015,07,14,04,50,14.90
2015,07,14,04,51,14.90
2015,07,14,04,52,14.90
2015,07,14,04,53,14.90
2015,07,14,04,54,14.90
2015,07,14,04,55,14.90
2015,07,14,04,56,14.90
2015,07,14,04,57,14.90
2015,07,14,04,58,14.90
2015,07,14,04,59,14.90
2015,07,14,05,00,14.90
2015,07,14,05,01,14.90
2015,07,14,05,02,15.00
2015,07,14,05,03,15.00
2015,07,14,05,04,15.10
2015,07,14,05,05,15.10
2015,07,14,05,06,15.10
2015,07,14,05,07,15.10
2015,07,14,05,08,15.20
2015,07,14,05,09,15.20
2015,07,14,05,10,15.20
2015,07,14,05,11,15.20
2015,07,14,05,12,15.20
2015,07,14,05,13,15.30
2015,07,14,05,14,15.30
2015,07,14,05,15,15.30
2015,07,14,05,16,15.40
2015,07,14,05,17,15.40
2015,07,14,05,18,15.50
2015,07,14,05,19,15.50
2015,07,14,05,20,15.50
2015,07,14,05,21,15.50
2015,07,14,05,22,15.60
2015,07,14,05,23,15.60
2015,07,14,05,24,15.60
2015,07,14,05,25,15.60
2015,07,14,05,26,15.60
2015,07,14,05,27,15.70
2015,07,14,05,28,15.70
2015,07,14,05,29,15.70
2015,07,14,05,30,15.70
2015,07,14,05,31,15.70
2015,07,14,05,32,15.70
2015,07,14,05,33,15.70
2015,07,14,05,34,15.70
2015,07,14,05,35,15.70
2015,07,14,05,36,15.70
2015,07,14,05,37,15.70
2015,07,14,05,38,15.70
2015,07,14,05,39,15.70
2015,07,14,05,40,15.70
2015,07,14,05,41,15.70
2015,07,14,05,42,15.70
2015,07,14,05,43,15.70
2015,07,14,05,44,15.70
2015,07,14,05,45,15.70
2015,07,14,05,46,15.70
2015,07,14,05,47,15.60
2015,07,14,05,48,15.60
2015,07,14,05,49,15.60
2015,07,14,05,50,15.60
2015,07,14,05,51,15.60
2015,07,14,05,52,15.60
2015,07,14,05,53,15.60
2015,07,14,05,54,15.60
2015,07,14,05,55,15.60
2015,07,14,05,56,15.60
2015,07,14,05,57,15.60
2015,07,14,05,58,15.60
2015,07,14,05,59,15.60
2015,07,14,06,00,15.60
2015,07,14,06,01,15.70
2015,07,14,06,02,15.70
2015,07,14,06,03,15.70
2015,07,14,06,04,15.70
2015,07,14,06,05,15.70
2015,07,14,06,06,15.70
2015,07,14,06,07,15.70
2015,07,14,06,08,15.70
2015,07,14,06,09,15.70
2015,07,14,06,10,15.70
2015,07,14,06,11,15.80
2015,07,14,06,12,15.80
2015,07,14,06,13,15.80
2015,07,14,06,14,15.80
2015,07,14,06,15,15.80
2015,07,14,06,16,15.80
2015,07,14,06,17,15.90
2015,07,14,06,18,15.90
2015,07,14,06,19,15.90
2015,07,14,06,20,15.90
2015,07,14,06,21,15.90
2015,07,14,06,22,15.90
2015,07,14,06,23,15.90
2015,07,14,06,24,15.90
2015,07,14,06,25,15.90
2015,07,14,06,26,16.00
2015,07,14,06,27,16.00
2015,07,14,06,28,16.00
2015,07,14,06,29,16.00
2015,07,14,06,30,16.00
2015,07,14,06,31,16.00
2015,07,14,06,32,16.00
2015,07,14,06,33,16.00
2015,07,14,06,34,16.00
2015,07,14,06,35,16.10
2015,07,14,06,36,16.10
2015,07,14,06,37,16.10
2015,07,14,06,38,16.10
2015,07,14,06,39,16.10
2015,07,14,06,40,16.10
2015,07,14,06,41,16.10
2015,07,14,06,42,16.20
2015,07,14,06,43,16.20
2015,07,14,06,44,16.20
2015,07,14,06,45,16.20
2015,07,14,06,46,16.20
2015,07,14,06,47,16.20
2015,07,14,06,48,16.30
2015,07,14,06,49,16.30
2015,07,14,06,50,16.30
2015,07,14,06,51,16.30
2015,07,14,06,52,16.30
2015,07,14,06,53,16.40
2015,07,14,06,54,16.40
2015,07,14,06,55,16.40
2015,07,14,06,56,16.40
2015,07,14,06,57,16.50
2015,07,14,06,58,16.50
2015,07,14,06,59,16.50
2015,07,14,07,00,16.60
2015,07,14,07,01,16.60
2015,07,14,07,02,16.70
2015,07,14,07,03,16.70
2015,07,14,07,04,16.70
2015,07,14,07,05,16.70
2015,07,14,07,06,16.70
2015,07,14,07,07,16.70
2015,07,14,07,08,16.80
2015,07,14,07,09,16.80
2015,07,14,07,10,16.80
2015,07,14,07,11,16.80
2015,07,14,07,12,16.80
2015,07,14,07,13,16.80
2015,07,14,07,14,16.80
2015,07,14,07,15,16.80
2015,07,14,07,16,16.80
2015,07,14,07,17,16.80
2015,07,14,07,18,16.80
2015,07,14,07,19,16.80
2015,07,14,07,20,16.90
2015,07,14,07,21,16.90
2015,07,14,07,22,16.90
2015,07,14,07,23,16.90
2015,07,14,07,24,16.90
2015,07,14,07,25,16.90
2015,07,14,07,26,16.90
2015,07,14,07,27,16.90
2015,07,14,07,28,16.90
2015,07,14,07,29,16.90
2015,07,14,07,30,16.90
2015,07,14,07,31,16.90
2015,07,14,07,32,16.90
2015,07,14,07,33,17.00
2015,07,14,07,34,17.00
2015,07,14,07,35,17.00
2015,07,14,07,36,17.10
2015,07,14,07,37,17.10
2015,07,14,07,38,17.10
2015,07,14,07,39,17.10
2015,07,14,07,40,17.10
2015,07,14,07,41,17.10
2015,07,14,07,42,17.10
2015,07,14,07,43,17.10
2015,07,14,07,44,17.10
2015,07,14,07,45,17.10
2015,07,14,07,46,17.10
2015,07,14,07,47,17.20
2015,07,14,07,48,17.20
2015,07,14,07,49,17.20
2015,07,14,07,50,17.20
2015,07,14,07,51,17.20
2015,07,14,07,52,17.20
2015,07,14,07,53,17.20
2015,07,14,07,54,17.20
2015,07,14,07,55,17.20
2015,07,14,07,56,17.30
2015,07,14,07,57,17.30
2015,07,14,07,58,17.30
2015,07,14,07,59,17.30
2015,07,14,08,00,17.30
2015,07,14,08,01,17.30
2015,07,14,08,02,17.40
2015,07,14,08,03,17.40
2015,07,14,08,04,17.40
2015,07,14,08,05,17.50
2015,07,14,08,06,17.50
2015,07,14,08,07,17.60
2015,07,14,08,08,17.60
2015,07,14,08,09,17.70
2015,07,14,08,10,17.70
2015,07,14,08,11,17.80
2015,07,14,08,12,17.80
2015,07,14,08,13,17.80
2015,07,14,08,14,17.90
2015,07,14,08,15,17.90
2015,07,14,08,16,18.00
2015,07,14,08,17,18.00
2015,07,14,08,18,18.00
2015,07,14,08,19,18.10
2015,07,14,08,20,18.10
2015,07,14,08,21,18.10
2015,07,14,08,22,18.10
2015,07,14,08,23,18.10
2015,07,14,08,24,18.20
2015,07,14,08,25,18.20
2015,07,14,08,26,18.20
2015,07,14,08,27,18.20
2015,07,14,08,28,18.20
2015,07,14,08,29,18.20
2015,07,14,08,30,18.20
2015,07,14,08,31,18.20
2015,07,14,08,32,18.20
2015,07,14,08,33,18.20
2015,07,14,08,34,18.30
2015,07,14,08,35,18.30
2015,07,14,08,36,18.30
2015,07,14,08,37,18.30
2015,07,14,08,38,18.30
2015,07,14,08,39,18.30
2015,07,14,08,40,18.30
2015,07,14,08,41,18.30
2015,07,14,08,42,18.30
2015,07,14,08,43,18.30
2015,07,14,08,44,18.30
2015,07,14,08,45,18.30
2015,07,14,08,46,18.30
2015,07,14,08,47,18.30
2015,07,14,08,48,18.30
2015,07,14,08,49,18.30
2015,07,14,08,50,18.30
2015,07,14,08,51,18.30
2015,07,14,08,52,18.30
2015,07,14,08,53,18.40
2015,07,14,08,54,18.40
2015,07,14,08,55,18.40
2015,07,14,08,56,18.40
2015,07,14,08,57,18.40
2015,07,14,08,58,18.40
2015,07,14,08,59,18.40
2015,07,14,09,00,18.40
2015,07,14,09,01,18.50
2015,07,14,09,02,18.50
2015,07,14,09,03,18.60
2015,07,14,09,04,18.60
2015,07,14,09,05,18.70
2015,07,14,09,06,18.70
2015,07,14,09,07,18.80
2015,07,14,09,08,18.80
2015,07,14,09,09,18.80
2015,07,14,09,10,18.90
2015,07,14,09,11,18.90
2015,07,14,09,12,18.90
2015,07,14,09,13,18.90
2015,07,14,09,14,18.90
2015,07,14,09,15,18.90
2015,07,14,09,16,18.90
2015,07,14,09,17,18.90
2015,07,14,09,18,18.90
2015,07,14,09,19,18.90
2015,07,14,09,20,18.90
2015,07,14,09,21,18.80
2015,07,14,09,22,18.80
2015,07,14,09,23,18.70
2015,07,14,09,24,18.70
2015,07,14,09,25,18.70
2015,07,14,09,26,18.70
2015,07,14,09,27,18.60
2015,07,14,09,28,18.60
2015,07,14,09,29,18.60
2015,07,14,09,30,18.60
2015,07,14,09,31,18.70
2015,07,14,09,32,18.70
2015,07,14,09,33,18.70
2015,07,14,09,34,18.70
2015,07,14,09,35,18.70
2015,07,14,09,36,18.70
2015,07,14,09,37,18.80
2015,07,14,09,38,18.70
2015,07,14,09,39,18.70
2015,07,14,09,40,18.70
2015,07,14,09,41,18.70
2015,07,14,09,42,18.70
2015,07,14,09,43,18.70
2015,07,14,09,44,18.70
2015,07,14,09,45,18.70
2015,07,14,09,46,18.70
2015,07,14,09,47,18.70
2015,07,14,09,48,18.70
2015,07,14,09,49,18.80
2015,07,14,09,50,18.80
2015,07,14,09,51,18.80
2015,07,14,09,52,18.80
2015,07,14,09,53,18.90
2015,07,14,09,54,18.90
2015,07,14,09,55,18.90
2015,07,14,09,56,18.90
2015,07,14,09,57,19.00
2015,07,14,09,58,19.00
2015,07,14,09,59,19.10
2015,07,14,10,00,19.10
2015,07,14,10,01,19.20
2015,07,14,10,02,19.20
2015,07,14,10,03,19.30
2015,07,14,10,04,19.30
2015,07,14,10,05,19.40
2015,07,14,10,06,19.40
2015,07,14,10,07,19.50
2015,07,14,10,08,19.60
2015,07,14,10,09,19.70
2015,07,14,10,10,19.70
2015,07,14,10,11,19.80
2015,07,14,10,12,19.80
2015,07,14,10,13,19.80
2015,07,14,10,14,19.80
2015,07,14,10,15,19.80
2015,07,14,10,16,19.90
2015,07,14,10,17,19.90
2015,07,14,10,18,20.00
2015,07,14,10,19,20.10
2015,07,14,10,20,20.10
2015,07,14,10,21,20.10
2015,07,14,10,22,20.10
2015,07,14,10,23,20.20
2015,07,14,10,24,20.20
2015,07,14,10,25,20.20
2015,07,14,10,26,20.20
2015,07,14,10,27,20.30
2015,07,14,10,28,20.30
2015,07,14,10,29,20.30
2015,07,14,10,30,20.30
2015,07,14,10,31,20.30
2015,07,14,10,32,20.30
2015,07,14,10,33,20.40
2015,07,14,10,34,20.40
2015,07,14,10,35,20.50
2015,07,14,10,36,20.60
2015,07,14,10,37,20.60
2015,07,14,10,38,20.60
2015,07,14,10,39,20.70
2015,07,14,10,40,20.70
2015,07,14,10,41,20.70
2015,07,14,10,42,20.70
2015,07,14,10,43,20.60
2015,07,14,10,44,20.60
2015,07,14,10,45,20.60
2015,07,14,10,46,20.60
2015,07,14,10,47,20.70
2015,07,14,10,48,20.70
2015,07,14,10,49,20.60
2015,07,14,10,50,20.60
2015,07,14,10,51,20.50
2015,07,14,10,52,20.50
2015,07,14,10,53,20.50
2015,07,14,10,54,20.60
2015,07,14,10,55,20.60
2015,07,14,10,56,20.60
2015,07,14,10,57,20.70
2015,07,14,10,58,20.70
2015,07,14,10,59,20.80
2015,07,14,11,00,20.90
2015,07,14,11,01,20.90
2015,07,14,11,02,20.90
2015,07,14,11,03,21.00
2015,07,14,11,04,21.00
2015,07,14,11,05,21.00
2015,07,14,11,06,21.00
2015,07,14,11,07,21.00
2015,07,14,11,08,21.00
2015,07,14,11,09,21.10
2015,07,14,11,10,21.00
2015,07,14,11,11,21.00
2015,07,14,11,12,21.00
2015,07,14,11,13,21.00
2015,07,14,11,14,21.00
2015,07,14,11,15,21.10
2015,07,14,11,16,21.20
2015,07,14,11,17,21.30
2015,07,14,11,18,21.30
2015,07,14,11,19,21.40
2015,07,14,11,20,21.60
2015,07,14,11,21,21.70
2015,07,14,11,22,21.80
2015,07,14,11,23,21.90
2015,07,14,11,24,21.90
2015,07,14,11,25,21.90
2015,07,14,11,26,22.00
2015,07,14,11,27,22.00
2015,07,14,11,28,21.90
2015,07,14,11,29,21.90
2015,07,14,11,30,21.80
2015,07,14,11,31,21.80
2015,07,14,11,32,21.70
2015,07,14,11,33,21.70
2015,07,14,11,34,21.70
2015,07,14,11,35,21.80
2015,07,14,11,36,21.80
2015,07,14,11,37,21.70
2015,07,14,11,38,21.60
2015,07,14,11,39,21.50
2015,07,14,11,40,21.50
2015,07,14,11,41,21.40
2015,07,14,11,42,21.40
2015,07,14,11,43,21.40
2015,07,14,11,44,21.50
2015,07,14,11,45,21.40
2015,07,14,11,46,21.40
2015,07,14,11,47,21.40
2015,07,14,11,48,21.50
2015,07,14,11,49,21.50
2015,07,14,11,50,21.60
2015,07,14,11,51,21.60
2015,07,14,11,52,21.60
2015,07,14,11,53,21.70
2015,07,14,11,54,21.70
2015,07,14,11,55,21.70
2015,07,14,11,56,21.70
2015,07,14,11,57,21.70
2015,07,14,11,58,21.70
2015,07,14,11,59,21.60
2015,07,14,12,00,21.60
2015,07,14,12,01,21.60
2015,07,14,12,02,21.60
2015,07,14,12,03,21.60
2015,07,14,12,04,21.50
2015,07,14,12,05,21.40
2015,07,14,12,06,21.40
2015,07,14,12,07,21.30
2015,07,14,12,08,21.30
2015,07,14,12,09,21.30
2015,07,14,12,10,21.30
2015,07,14,12,11,21.30
2015,07,14,12,12,21.40
2015,07,14,12,13,21.40
2015,07,14,12,14,21.50
2015,07,14,12,15,21.50
2015,07,14,12,16,21.60
2015,07,14,12,17,21.70
2015,07,14,12,18,21.70
2015,07,14,12,19,21.70
2015,07,14,12,20,21.60
2015,07,14,12,21,21.70
2015,07,14,12,22,21.70
2015,07,14,12,23,21.70
2015,07,14,12,24,21.70
2015,07,14,12,25,21.80
2015,07,14,12,26,21.70
2015,07,14,12,27,21.70
2015,07,14,12,28,21.80
2015,07,14,12,29,21.80
2015,07,14,12,30,21.80
2015,07,14,12,31,21.80
2015,07,14,12,32,21.80
2015,07,14,12,33,21.80
2015,07,14,12,34,21.90
2015,07,14,12,35,22.00
2015,07,14,12,36,22.10
2015,07,14,12,37,22.20
2015,07,14,12,38,22.30
2015,07,14,12,39,22.40
2015,07,14,12,40,22.50
2015,07,14,12,41,22.60
2015,07,14,12,42,22.60
2015,07,14,12,43,22.70
2015,07,14,12,44,22.70
2015,07,14,12,45,22.70
2015,07,14,12,46,22.70
2015,07,14,12,47,22.70
2015,07,14,12,48,22.70
2015,07,14,12,49,22.70
2015,07,14,12,50,22.60
2015,07,14,12,51,22.40
2015,07,14,12,52,22.20
2015,07,14,12,53,22.10
2015,07,14,12,54,21.90
2015,07,14,12,55,21.80
2015,07,14,12,56,21.80
2015,07,14,12,57,21.70
2015,07,14,12,58,21.70
2015,07,14,12,59,21.70
2015,07,14,13,00,21.60
2015,07,14,13,01,21.60
2015,07,14,13,02,21.50
2015,07,14,13,03,21.50
2015,07,14,13,04,21.40
2015,07,14,13,05,21.40
2015,07,14,13,06,21.50
2015,07,14,13,07,21.50
2015,07,14,13,08,21.60
2015,07,14,13,09,21.70
2015,07,14,13,10,21.70
2015,07,14,13,11,21.80
2015,07,14,13,12,21.80
2015,07,14,13,13,21.80
2015,07,14,13,14,21.80
2015,07,14,13,15,21.80
2015,07,14,13,16,21.80
2015,07,14,13,17,21.70
2015,07,14,13,18,21.70
2015,07,14,13,19,21.80
2015,07,14,13,20,21.90
2015,07,14,13,21,21.90
2015,07,14,13,22,22.00
2015,07,14,13,23,22.10
2015,07,14,13,24,22.20
2015,07,14,13,25,22.20
2015,07,14,13,26,22.20
2015,07,14,13,27,22.20
2015,07,14,13,28,22.30
2015,07,14,13,29,22.30
2015,07,14,13,30,22.40
2015,07,14,13,31,22.40
2015,07,14,13,32,22.50
2015,07,14,13,33,22.60
2015,07,14,13,34,22.60
2015,07,14,13,35,22.70
2015,07,14,13,36,22.70
2015,07,14,13,37,22.80
2015,07,14,13,38,22.80
2015,07,14,13,39,22.80
2015,07,14,13,40,22.80
2015,07,14,13,41,22.80
2015,07,14,13,42,22.80
2015,07,14,13,43,22.70
2015,07,14,13,44,22.70
2015,07,14,13,45,22.70
2015,07,14,13,46,22.70
2015,07,14,13,47,22.70
2015,07,14,13,48,22.70
2015,07,14,13,49,22.70
2015,07,14,13,50,22.70
2015,07,14,13,51,22.70
2015,07,14,13,52,22.70
2015,07,14,13,53,22.80
2015,07,14,13,54,22.90
2015,07,14,13,55,23.10
2015,07,14,13,56,23.30
2015,07,14,13,57,23.40
2015,07,14,13,58,23.50
2015,07,14,13,59,23.80
2015,07,14,14,00,24.00
2015,07,14,14,01,24.10
2015,07,14,14,02,24.20
2015,07,14,14,03,24.40
2015,07,14,14,04,24.50
2015,07,14,14,05,24.60
2015,07,14,14,06,24.70
2015,07,14,14,07,24.60
2015,07,14,14,08,24.50
2015,07,14,14,09,24.40
2015,07,14,14,10,24.30
2015,07,14,14,11,24.30
2015,07,14,14,12,24.40
2015,07,14,14,13,24.30
2015,07,14,14,14,24.30
2015,07,14,14,15,24.30
2015,07,14,14,16,24.30
2015,07,14,14,17,24.30
2015,07,14,14,18,24.20
2015,07,14,14,19,24.20
2015,07,14,14,20,24.20
2015,07,14,14,21,24.20
2015,07,14,14,22,24.20
2015,07,14,14,23,24.20
2015,07,14,14,24,24.10
2015,07,14,14,25,23.90
2015,07,14,14,26,23.80
2015,07,14,14,27,23.80
2015,07,14,14,28,23.80
2015,07,14,14,29,23.80
2015,07,14,14,30,23.80
2015,07,14,14,31,23.80
2015,07,14,14,32,23.70
2015,07,14,14,33,23.70
2015,07,14,14,34,23.70
2015,07,14,14,35,23.70
2015,07,14,14,36,23.70
2015,07,14,14,37,23.80
2015,07,14,14,38,23.80
2015,07,14,14,39,24.00
2015,07,14,14,40,24.10
2015,07,14,14,41,24.20
2015,07,14,14,42,24.30
2015,07,14,14,43,24.30
2015,07,14,14,44,24.40
2015,07,14,14,45,24.50
2015,07,14,14,46,24.50
2015,07,14,14,47,24.60
2015,07,14,14,48,24.60
2015,07,14,14,49,24.50
2015,07,14,14,50,24.50
2015,07,14,14,51,24.50
2015,07,14,14,52,24.40
2015,07,14,14,53,24.50
2015,07,14,14,54,24.50
2015,07,14,14,55,24.40
2015,07,14,14,56,24.40
2015,07,14,14,57,24.30
2015,07,14,14,58,24.20
2015,07,14,14,59,24.20
2015,07,14,15,00,24.20
2015,07,14,15,01,24.20
2015,07,14,15,02,24.30
2015,07,14,15,03,24.40
2015,07,14,15,04,24.40
2015,07,14,15,05,24.50
2015,07,14,15,06,24.60
2015,07,14,15,07,24.70
2015,07,14,15,08,24.80
2015,07,14,15,09,24.90
2015,07,14,15,10,24.90
2015,07,14,15,11,25.10
2015,07,14,15,12,25.20
2015,07,14,15,13,25.30
2015,07,14,15,14,25.30
2015,07,14,15,15,25.30
2015,07,14,15,16,25.40
2015,07,14,15,17,25.40
2015,07,14,15,18,25.50
2015,07,14,15,19,25.50
2015,07,14,15,20,25.50
2015,07,14,15,21,25.40
2015,07,14,15,22,25.40
2015,07,14,15,23,25.40
2015,07,14,15,24,25.40
2015,07,14,15,25,25.40
2015,07,14,15,26,25.40
2015,07,14,15,27,25.50
2015,07,14,15,28,25.60
2015,07,14,15,29,25.70
2015,07,14,15,30,25.80
2015,07,14,15,31,26.00
2015,07,14,15,32,26.20
2015,07,14,15,33,26.30
2015,07,14,15,34,26.50
2015,07,14,15,35,26.70
2015,07,14,15,36,26.80
2015,07,14,15,37,26.90
2015,07,14,15,38,27.00
2015,07,14,15,39,27.10
2015,07,14,15,40,27.20
2015,07,14,15,41,27.20
2015,07,14,15,42,27.10
2015,07,14,15,43,27.00
2015,07,14,15,44,26.90
2015,07,14,15,45,26.70
2015,07,14,15,46,26.60
2015,07,14,15,47,26.50
2015,07,14,15,48,26.30
2015,07,14,15,49,26.20
2015,07,14,15,50,26.10
2015,07,14,15,51,26.00
2015,07,14,15,52,26.00
2015,07,14,15,53,25.80
2015,07,14,15,54,25.70
2015,07,14,15,55,25.70
2015,07,14,15,56,25.60
2015,07,14,15,57,25.50
2015,07,14,15,58,25.40
2015,07,14,15,59,25.30
2015,07,14,16,00,25.20
2015,07,14,16,01,25.10
2015,07,14,16,02,25.10
2015,07,14,16,03,25.00
2015,07,14,16,04,24.90
2015,07,14,16,05,24.70
2015,07,14,16,06,24.60
2015,07,14,16,07,24.50
2015,07,14,16,08,24.40
2015,07,14,16,09,24.50
2015,07,14,16,10,24.50
2015,07,14,16,11,24.40
2015,07,14,16,12,24.50
2015,07,14,16,13,24.50
2015,07,14,16,14,24.60
2015,07,14,16,15,24.60
2015,07,14,16,16,24.60
2015,07,14,16,17,24.60
2015,07,14,16,18,24.60
2015,07,14,16,19,24.50
2015,07,14,16,20,24.50
2015,07,14,16,21,24.50
2015,07,14,16,22,24.60
2015,07,14,16,23,24.80
2015,07,14,16,24,24.90
2015,07,14,16,25,25.10
2015,07,14,16,26,25.30
2015,07,14,16,27,25.40
2015,07,14,16,28,25.60
2015,07,14,16,29,25.60
2015,07,14,16,30,25.70
2015,07,14,16,31,25.60
2015,07,14,16,32,25.40
2015,07,14,16,33,25.20
2015,07,14,16,34,24.90
2015,07,14,16,35,24.70
2015,07,14,16,36,24.60
2015,07,14,16,37,24.40
2015,07,14,16,38,24.30
2015,07,14,16,39,24.30
2015,07,14,16,40,24.30
2015,07,14,16,41,24.30
2015,07,14,16,42,24.30
2015,07,14,16,43,24.40
2015,07,14,16,44,24.50
2015,07,14,16,45,24.60
2015,07,14,16,46,24.70
2015,07,14,16,47,24.80
2015,07,14,16,48,24.80
2015,07,14,16,49,25.00
2015,07,14,16,50,25.00
2015,07,14,16,51,25.10
2015,07,14,16,52,25.10
2015,07,14,16,53,25.10
2015,07,14,16,54,25.10
2015,07,14,16,55,25.20
2015,07,14,16,56,25.30
2015,07,14,16,57,25.40
2015,07,14,16,58,25.50
2015,07,14,16,59,25.50
2015,07,14,17,00,25.60
2015,07,14,17,01,25.60
2015,07,14,17,02,25.60
2015,07,14,17,03,25.70
2015,07,14,17,04,25.80
2015,07,14,17,05,25.80
2015,07,14,17,06,25.90
2015,07,14,17,07,25.90
2015,07,14,17,08,26.00
2015,07,14,17,09,26.10
2015,07,14,17,10,26.10
2015,07,14,17,11,26.10
2015,07,14,17,12,26.10
2015,07,14,17,13,26.10
2015,07,14,17,14,26.00
2015,07,14,17,15,25.90
2015,07,14,17,16,25.80
2015,07,14,17,17,25.80
2015,07,14,17,18,25.80
2015,07,14,17,19,25.70
2015,07,14,17,20,25.70
2015,07,14,17,21,25.70
2015,07,14,17,22,25.70